EXPRESS 103

Last updated on Wed Nov 20 2024 00:02:43 GMT+0000 (Coordinated Universal Time)

1 45985U 20053A 24324.49493080 -.00000279 00000+0 00000+0 0 9990 2 45985 0.0150 287.3654 0000348 272.5490 133.7830 1.00270109 15885
UTC large
Height (km)
Speed (km/s)
/
Latitude / Longitude
Inclination (degrees)
Orbital Period (minutes)
Azimuth
Elevation
Range (km)
Doppler Factor

Next 0 passes for location: London (51.5072 / 0.1276)

Sorry there are no passes over London.